Location: Colorado Springs
(38.8340°N, 104.8210°W)
Time: 04:12:58
(UTC-07:00)

Vanguard 3 - Pass Details

Date: 23 October 2017
Orbit: 510 x 3263 km, 33.3° (Epoch: 23 November)

Event Time Altitude Azimuth Distance (km) Brightness Sun altitude
Rises 06:38:33 0° 263° (W) 6,338 - -8.2°
Exits shadow 06:41:33 - 262° (W) 5,476 10.7 -7.6°
Reaches altitude 10° 06:43:26 10° 261° (W) 4,918 10.5 -7.3°
Maximum altitude 06:55:55 63° 185° (S) 1,619 8.7 -4.9°
Drops below altitude 10° 07:02:47 10° 105° (ESE) 2,805 12.0 -3.6°
Sets 07:04:51 0° 102° (ESE) 3,513 14.1 -3.2°
